Вернуться в каталог

STARLINK-33818

АктивенСвязьVLEO
NORAD 63502·PAYLOAD·🇺🇸 United States

Запущен Apr 7, 2025 с Vandenberg Space Force Base

Loading…

Ближайшие Пролёты (ближайшие 24 часа)

TLE

СвежийSource: CelesTrak SupGP

Эпоха: Sep 15, 2026, 03:34 UTC

1 63502C 25071K   26258.14909722  .00065175  00000+0  19248-2 0  2585
2 63502  53.1585 338.5851 0001230  87.5492 343.5198 15.34371048    19

Отслеживайте STARLINK-33818 в реальном времени с AllMySat

Download on the App Store